Location: Albuquerque Trailhead
(34.7934°N, 106.3736°W)
Time: 09:45:11
(UTC+00:00)

Exosat Rocket - Pass Details

Date: 29 October 2021
Orbit: 759 x 2516 km, 72.3° (Epoch: 08 December)

Event Time Altitude Azimuth Distance (km) Brightness Sun altitude
Exits shadow 12:35:59 - 253° (WSW) 4,140 6.7 -10.4°
Reaches altitude 10° 12:36:59 10° 257° (WSW) 3,940 6.6 -10.2°
Maximum altitude 12:45:28 28° 312° (NW) 3,278 6.3 -8.5°
Drops below altitude 10° 12:56:12 10° 7° (N) 5,008 7.6 -6.3°
Sets 13:01:13 0° 18° (NNE) 6,150 8.2 -5.3°
